Weather Roundup
Issued by NWS Chicago, IL

Home | Current Version | Previous Version | Text Only | Print | Product List | Glossary Off
Versions: 1 2 3 4 5 6 7 8 9 10 11 12 13 14 15 16 17 18 19 20 21 22 23 24 25 26 27 28 29 30 31 32 33 34 35 36 37 38 39 40 41 42 43 44 45 46 47 48 49 50

000
NZUS59 KLOT 220406
HRRLOT

CHICAGO AREA WEATHER ROUNDUP
NATIONAL WEATHER SERVICE CHICAGO/ROMEOVILLE IL
1000 PM CST SUN DEC 21 2014

NOTE: "FAIR" INDICATES FEW OR NO CLOUDS BELOW 12,000 FEET WITH NO
SIGNIFICANT WEATHER AND/OR OBSTRUCTIONS TO VISIBILITY.

* THESE STATIONS ARE NOT UNDER NWS QUALITY CONTROL. THEY ALSO MAY NOT
  REPORT WEATHER SUCH AS PRECIPITATION OR FOG.

ILZ005-006-012>014-019>023-220500-
NORTHEAST ILLINOIS

CITY           SKY/WX    TMP DP  RH WIND       PRES   REMARKS
OHARE          MOCLDY    34  28  79 S12       30.03F WCI  25
MIDWAY         CLOUDY    35  28  75 SE9       30.04F WCI  28
AURORA         CLOUDY    34  28  79 SE10      30.02F WCI  26
LANSING*       MOCLDY    32  28  84 SE9       30.05F FOG     WCI  24
JOLIET*        PTCLDY    31  28  88 S5        30.05S FOG     WCI  27
WAUKEGAN       MOCLDY    34  29  82 SE13      30.02F WCI  25
DUPAGE AIRPORT MOCLDY    33  28  81 S10       30.01F WCI  25
WHEELING       MOCLDY    34  28  79 S10       30.04F WCI  26
KANKAKEE*      CLEAR     31  28  90 SE9       30.06S WCI  23
MORRIS*        CLOUDY    34  31  90 SE14      30.02F WCI  25
LEWIS AIRPORT* MOCLDY    32  29  89 S10       30.04S FOG     WCI  23
NORTHERLY IS     N/A     34  28  79 SE14        N/A  WCI  25
$$

WIZ051-052-058>065-066-070>072-220500-
SOUTHEAST WISCONSIN

CITY           SKY/WX    TMP DP  RH WIND       PRES   REMARKS
MILWAUKEE      CLOUDY    37  29  72 S15       30.02F
KENOSHA*       CLOUDY    35  30  82 S10       30.02F WCI  27
RACINE*        CLOUDY    37  30  75 S15G22    30.04F
BURLINGTON     CLOUDY    33  29  86 SE8       30.00F WCI  26
WAUKESHA       CLOUDY    32  30  93 SE12      30.00F WCI  23
WEST BEND      CLOUDY    34  30  86 SE8       30.00S WCI  27
$$

INZ001>003-010>013-019-020-220500-
NORTHWEST INDIANA

CITY           SKY/WX    TMP DP  RH WIND       PRES   REMARKS
GARY*          PTCLDY    34  26  72 SE10      30.06F WCI  26
MICHIGAN CITY* NOT AVBL
RENSSELAER*    NOT AVBL
VALPARAISO     PTCLDY    30  26  85 SE9       30.08F WCI  22
$$

LMZ740>746-220500-
SOUTHERN LAKE MICHIGAN

STATION/POSITION TIME  SKY/WX   TEMP WIND        PRES    VSBY
                                AIR  DIR/SP/G
                 (UTC)          (F)  (DEG/KT/KT) (MB)    (MI)
HARRISON CRIB    0400            34  150/ 19/ 24   N/A
BURNHAM HARBOR   0400            33  150/ 14/ 16   N/A
CALUMET HARBOR   0400            33  150/  9/ 13 1016.3F
BURNS HARBOR     NOT AVBL
MICHIGAN CITY    NOT AVBL
$$

ABBREVIATIONS USED IN REMARKS
   TC - TEMPERATURE IN CELSIUS
  WCI - WIND CHILL INDEX
   HX - HEAT INDEX
  VSB - VISIBILITY
$$


USA.gov is the U.S. government's official web portal to all federal, state and local government web resources and services.